Regional Weather Roundup
Issued by NWS Cleveland, OH

Home | Current Version | Previous Version | Text Only | Print | Product List | Glossary On
Versions: 1 2 3 4 5 6 7 8 9 10 11 12 13 14 15 16 17 18 19 20 21 22 23 24 25 26 27 28 29 30 31 32 33 34 35 36 37 38 39 40 41 42 43 44 45 46 47 48 49 50
000
ASUS41 KCLE 290210
RWRCLE
OHIO REGIONAL WEATHER ROUNDUP
NATIONAL WEATHER SERVICE CLEVELAND, OH
900 PM EST FRI NOV 28 2014

NOTE: "FAIR" INDICATES FEW OR NO CLOUDS BELOW 12,000 FEET WITH NO
SIGNIFICANT WEATHER AND/OR OBSTRUCTIONS TO VISIBILITY.

OHZ001>008-015>018-024>027-034-035-043-044-290300-
   NORTHWEST OHIO

CITY           SKY/WX    TMP DP  RH WIND       PRES   REMARKS
DEFIANCE       CLOUDY    30  20  66 S7        30.10F WCI  23
FINDLAY        CLOUDY    32  21  64 S16       30.10F WCI  21
TOLEDO EXPRESS CLOUDY    28  22  78 S3        30.10F
TOLEDO EXEC    CLOUDY    29  23  78 SE7       30.12F WCI  22
LIMA           CLOUDY    32  20  61 S15G22    30.09F WCI  22
$$

OHZ009>014-019>023-028>033-038-089-290300-
   NORTHEAST OHIO

CITY           SKY/WX    TMP DP  RH WIND       PRES   REMARKS
CLE-HOPKINS    CLOUDY    27  20  75 S10       30.18F WCI  17
CLE-LAKEFRONT  CLOUDY    28  20  71 SE9       30.17F WCI  19
CUY CO. ARPT   CLOUDY    28  25  86 S9        30.17F WCI  20
LORAIN-ELYRIA  CLOUDY    27  21  78 S10       30.15F WCI  17
ASHTABULA      FLURRIES  24  16  71 S6        30.19F WCI  17
AKRON-CANTON   CLOUDY    26  19  74 S8        30.16F WCI  18
WOOSTER        CLOUDY    26  20  77 S9        30.16F WCI  17
MANSFIELD      CLOUDY    28  19  69 S13       30.12F WCI  17
YOUNGSTOWN     LGT SNOW  24  21  88 S6        30.17F VSB 3/4 WCI  17
$$

OHZ042-051>053-060>062-070>072-077>081-290300-
  SOUTHWEST OHIO

CITY           SKY/WX    TMP DP  RH WIND       PRES   REMARKS
CINC-COVINGTON MOCLDY    33  17  51 S9        30.11F WCI  25
CINC-LUNKEN    PTCLDY    32  18  56 S3        30.15F
HAMILTON       MOCLDY    33  18  53 SE3       30.15S
DAYTON         CLOUDY    33  18  53 S13       30.11F WCI  24
WRIGHT-PAT AFB CLOUDY    32  19  58 S8        30.13F WCI  24
DAYTON GENERAL MOCLDY    31  19  61 S9        30.11F WCI  23
WILMINGTON     CLOUDY    30  18  60 S9        30.13S WCI  22
$$

OHZ036-037-039>041-045>050-054>059-063>069-073>076-082>088-290300-
  CENTRAL AND SOUTHEAST OHIO

CITY           SKY/WX    TMP DP  RH WIND       PRES   REMARKS
COLUMBUS       CLOUDY    31  17  56 SE8       30.17F WCI  23
OSU AIRPORT    CLOUDY    31  18  58 S10       30.15F WCI  22
BOLTON FIELD   CLOUDY    30  20  66 SE9       30.15F WCI  22
RICKENBACK AFB CLOUDY    30  19  63 SE6       30.17F WCI  24
NEWARK         CLOUDY    31  17  56 S5        30.17F WCI  26
MARION         CLOUDY    30  20  66 S16       30.13F WCI  19
LANCASTER      MOCLDY    31  18  58 SE7       30.18F WCI  24
ZANESVILLE     CLOUDY    29  17  61 S7        30.19F WCI  22
NEW PHILLY     MOCLDY    29  19  66 S3        30.20F
$$



USA.gov is the U.S. government's official web portal to all federal, state and local government web resources and services.